#timestamp,LO_Frequency,Hit,StdDev 
1559062815.8,286047032.8,N
1559062835.6,286047034.1,N
1559062855.5,286047035.1,N
1559062875.3,286047033.8,N
1559062895.2,286047033.7,N
1559062915.9,286047038.4,Y
1559062935.7,286047022.0,P
1559062955.6,286047019.8,P
1559062975.4,286047018.9,P
1559062995.2,286047022.9,Y
1559063015.1,286047005.1,P
1559063016.0,286047005.1,N
1559063035.8,286047006.5,N
1559063085.7,286047005.9,E
1559063095.6,286047002.5,N
1559063115.5,286046995.2,P
1559063135.3,286046990.9,N
1559063155.1,286046986.7,N
1559063175.9,286046982.5,Y
1559063195.7,286046985.4,P
1559063215.5,286046989.4,N
1559063235.4,286046989.6,P
1559063255.2,286046991.2,N
1559063275.1,286046992.5,N
1559063276.0,286046992.5,N
1559063295.8,286046994.7,N
1559063315.6,286046989.4,Y
1559063335.5,286046994.8,P
1559063355.3,286046985.6,P
1559063375.2,286046989.7,N
1559063395.9,286046988.7,Y
1559063415.7,286046994.0,P
1559063435.6,286046998.4,N
1559063455.4,286047006.3,N
1559063475.2,286047015.5,N
1559063495.1,286047020.1,N
1559063496.0,286047020.1,N
1559063515.8,286047024.6,N
1559063535.7,286047029.6,N
1559063585.5,286047028.1,E
1559063595.5,286047013.7,N
1559063615.3,286046996.8,P
1559063635.1,286047001.0,N
1559063655.9,286046998.3,N
1559063675.7,286047005.2,N
1559063695.6,286047013.4,N
1559063715.4,286047011.9,N
1559063735.2,286047018.3,N
1559063755.1,286047017.2,N
1559063756.0,286047017.2,N
1559063775.8,286047013.5,N
1559063795.6,286047004.7,N
1559063815.5,286047004.5,N
1559063835.3,286047004.7,N
1559063855.2,286047007.0,N
1559063875.9,286047004.9,N
1559063895.7,286047000.1,N
1559063915.6,286046998.7,N
1559063935.4,286047005.7,N
1559063955.2,286047002.5,N
1559063975.1,286046995.9,N
1559063976.0,286046995.9,N
1559063995.8,286046996.2,N
1559064015.7,286046995.1,N
1559064035.5,286047001.0,N
1559064055.3,286047004.0,N
1559064075.2,286047010.4,N
1559064095.0,286047012.3,N
1559064095.9,286047012.3,N
1559064115.8,286047005.6,N
1559064135.6,286047004.3,N
1559064155.4,286047004.2,N
1559064175.3,286047004.7,N
1559064195.1,286047008.3,N
1559064215.8,286047008.3,N
1559064235.7,286047007.7,N
1559064255.5,286047013.8,N
1559064275.4,286047016.0,N
1559064295.2,286047016.0,N
1559064315.0,286047015.5,N
1559064315.9,286047015.5,N
1559064335.8,286047014.2,N
1559064355.6,286047021.6,Y
1559064375.4,286047015.8,P
1559064395.3,286047021.0,P
1559064415.1,286047025.2,P
1559064435.9,286047020.5,N
1559064455.7,286047016.5,N
1559064475.5,286047011.9,N
1559064495.4,286047011.6,N
1559064515.2,286047006.5,N
1559064535.1,286047005.3,N
1559064536.0,286047005.3,N
1559064555.8,286047004.7,N
1559064605.7,286046997.4,E
1559064615.6,286046999.6,N
1559064635.4,286047002.4,P
1559064655.3,286047003.4,N
1559064675.1,286047001.5,N
1559064676.0,286047001.5,N
1559064695.8,286047005.3,Y
1559064715.7,286047004.2,P
1559064735.5,286047003.5,N
1559064755.3,286047005.9,P
1559064775.2,286047010.0,Y
1559064795.0,286047005.5,P
1559064795.9,286047005.5,P
1559064815.8,286047002.0,N
1559064835.6,286046993.6,Y
1559064855.5,286046988.0,P
1559064875.3,286046985.4,N
1559064895.1,286046986.3,N
1559064915.9,286046984.6,N
1559064935.7,286046983.0,N
1559064955.5,286046980.3,N
1559064975.4,286046977.5,Y
1559064995.2,286046990.5,P
1559065015.1,286046991.2,P
1559065016.0,286046991.2,P
1559065035.8,286046994.3,Y
1559065055.6,286047006.3,P
1559065075.5,286047011.3,N
1559065095.3,286047010.8,N
1559065115.2,286047006.1,N
1559065135.9,286047001.6,N
1559065155.7,286047000.7,N
1559065175.6,286046995.9,N
1559065195.4,286046998.5,N
1559065215.2,286047003.8,N
1559065235.1,286047000.2,N
1559065236.0,286047000.2,N
1559065255.8,286046994.1,N
1559065275.7,286046990.1,N
1559065295.5,286046989.0,N
1559065315.3,286046988.6,N
1559065335.2,286046991.1,N
1559065355.0,286046996.1,N
1559065355.9,286046996.1,N
1559065375.7,286047002.7,N
1559065395.6,286047006.5,N
1559065415.4,286047008.8,N
1559065435.3,286047003.4,N
1559065455.1,286047007.4,N
1559065456.0,286047007.4,N
1559065475.8,286047006.1,N
1559065495.7,286047000.3,N
1559065515.5,286046995.5,N
1559065535.3,286046990.6,N
1559065555.2,286046986.0,N
1559065575.0,286046991.6,N
1559065575.9,286046991.6,N
1559065595.8,286046997.9,N
1559065615.6,286046992.4,N
1559065635.4,286046993.8,N
1559065655.3,286046993.8,N
1559065675.1,286046989.3,N
1559065695.9,286046986.5,N
1559065715.7,286046987.5,N
1559065735.5,286046987.9,N
1559065755.4,286046988.3,N
1559065775.2,286046991.6,N
1559065795.0,286046995.9,N
1559065795.9,286046995.9,N
1559065815.8,286046998.2,N
1559065835.6,286047006.4,N
1559065855.5,286047013.0,N
1559065875.3,286047012.5,N
1559065895.1,286047018.2,N
1559065915.9,286047018.1,N
1559065935.7,286047017.6,N
1559065955.6,286047018.3,N
1559065975.4,286047010.9,N
1559065995.2,286047012.8,N
1559066015.1,286047013.1,N
1559066016.0,286047013.1,N
1559066035.8,286047013.1,N
1559066055.6,286047016.9,N
1559066075.5,286047016.6,N
1559066095.3,286047020.1,N
1559066115.2,286047015.5,N
1559066135.9,286047013.6,N
1559066155.7,286047009.4,N
1559066175.6,286047009.5,N
1559066195.4,286047010.4,N
1559066215.2,286047006.3,N
1559066235.1,286047008.8,N
1559066236.0,286047008.8,N
1559066255.8,286047006.4,N
1559066275.7,286047008.3,N
1559066295.5,286047005.2,N
1559066315.3,286047004.4,N
1559066335.2,286047009.0,N
1559066355.0,286047010.5,N
1559066355.9,286047010.5,N
1559066375.8,286047010.4,N
1559066395.6,286047012.4,N
